Location: Unspecified
(42.2730°N, 83.7130°W)
Time: 14:48:13
(UTC+00:00)

ERS-1 - Pass Details

Date: 14 December 2025
Orbit: 738 x 783 km, 98.8° (Epoch: 17 January)

Event Time Altitude Azimuth Distance (km) Brightness Sun altitude
Rises 23:09:17 0° 158° (SSE) 3,196 7.7 -11.8°
Reaches altitude 10° 23:11:35 10° 157° (SSE) 2,269 6.9 -12.2°
Maximum altitude 23:16:32 72° 73° (ENE) 788 4.4 -13.1°
Drops below altitude 10° 23:21:29 10° 350° (N) 2,262 6.8 -13.9°
Sets 23:23:46 0° 349° (N) 3,186 7.6 -14.3°
